OK2ILA-1 Weather Reports


time (UTC)temp
C
wind
direction
speed
KPH
gust
KPH
rain 1hr
cm
rain 24hr
cm
rain mn
cm
humidity
%
barometer
mb
20260905164910 21 281 12.9 20.9 0.00 0.03 0.03 100 1020.4
20260905163710 21 261 9.7 17.7 0.00 0.03 0.03 100 1020.3
20260905162509 21 244 9.7 19.3 0.00 0.03 0.03 100 1020.3
20260905161308 21 251 24.1 30.6 0.00 0.03 0.03 100 1020.2
20260905160108 21 274 19.3 30.6 0.00 0.03 0.03 100 1019.9
20260905154908 22 244 12.9 30.6 0.00 0.03 0.03 100 1019.7
20260905153706 22 261 12.9 29.0 0.00 0.03 0.03 100 1019.6
20260905152506 22 248 16.1 27.4 0.00 0.03 0.03 100 1019.6
20260905151305 22 272 17.7 27.4 0.00 0.03 0.03 100 1019.7
20260905150104 22 232 22.5 43.5 0.00 0.03 0.03 100 1019.5
20260905144903 22 270 16.1 37.0 0.00 0.03 0.03 100 1019.5
20260905143703 22 251 24.1 37.0 0.00 0.03 0.03 100 1019.4
20260905142502 22 248 20.9 32.2 0.00 0.03 0.03 100 1019.4
20260905141301 22 237 20.9 35.4 0.00 0.03 0.03 100 1019.3
20260905134900 22 274 9.7 30.6 0.00 0.03 0.03 100 1019.3
20260905133659 22 240 20.9 33.8 0.00 0.03 0.03 100 1019.3
20260905132459 22 254 17.7 38.6 0.00 0.03 0.03 100 1019.2
20260905131258 22 241 24.1 32.2 0.00 0.03 0.03 100 1019.2
20260905130057 22 262 20.9 41.8 0.00 0.03 0.03 100 1019.1
20260905124857 22 257 16.1 37.0 0.00 0.03 0.03 100 1019.4
20260905123656 22 198 19.3 37.0 0.00 0.03 0.03 100 1019.3
20260905122455 23 251 16.1 33.8 0.00 0.03 0.03 100 1019.4
20260905121255 23 257 11.3 37.0 0.00 0.03 0.03 100 1019.4
20260905120054 23 267 4.8 30.6 0.00 0.03 0.03 100 1019.4
20260905114853 22 258 25.7 33.8 0.00 0.03 0.03 100 1019.3
20260905113653 22 251 22.5 37.0 0.00 0.03 0.03 100 1019.6
20260905112452 21 233 14.5 27.4 0.00 0.03 0.03 100 1019.5
20260905111251 22 243 22.5 33.8 0.00 0.03 0.03 100 1019.5
20260905110050 22 250 24.1 41.8 0.00 0.03 0.03 100 1019.4
20260905104850 22 216 20.9 35.4 0.00 0.03 0.03 100 1019.4
20260905103649 22 261 17.7 37.0 0.00 0.03 0.03 100 1019.6
20260905102448 22 209 12.9 37.0 0.00 0.03 0.03 100 1019.6
20260905101248 22 268 37.0 37.0 0.00 0.03 0.03 100 1019.5
20260905100047 21 230 14.5 32.2 0.00 0.03 0.03 100 1019.6
20260905094846 21 243 16.1 32.2 0.00 0.03 0.03 100 1019.5
20260905093646 21 248 17.7 35.4 0.00 0.03 0.03 100 1019.7
20260905092445 21 244 27.4 33.8 0.00 0.03 0.03 100 1019.6
20260905091244 21 243 22.5 25.7 0.00 0.03 0.03 100 1019.5
20260905090044 20 233 14.5 30.6 0.00 0.03 0.03 100 1019.7
20260905084843 20 285 12.9 30.6 0.00 0.03 0.03 100 1019.9
20260905083642 18 275 14.5 25.7 0.00 0.03 0.03 100 1019.9
20260905082442 18 217 8.0 24.1 0.00 0.03 0.03 100 1019.9
20260905081241 17 265 9.7 20.9 0.00 0.03 0.03 100 1019.5
20260905080040 17 189 12.9 24.1 0.00 0.03 0.03 100 1019.2
20260905074840 17 233 16.1 25.7 0.00 0.03 0.03 100 1019.4
20260905073639 17 174 11.3 27.4 0.03 0.03 0.03 100 1019.4
20260905072438 16 251 14.5 17.7 0.03 0.03 0.03 100 1019.4
20260905071238 16 222 12.9 16.1 0.03 0.03 0.03 100 1019.3
20260905070037 16 180 8.0 14.5 0.03 0.03 0.03 100 1019.2
20260905064836 16 185 9.7 11.3 0.03 0.03 0.03 100 1019.1
20260905063635 16 205 11.3 11.3 0.00 0.00 0.00 100 1019.0
20260905062435 16 225 6.4 12.9 0.00 0.00 0.00 100 1019.0
20260905061234 16 195 9.7 11.3 0.00 0.00 0.00 100 1018.6
20260905060033 16 201 6.4 14.5 0.00 0.00 0.00 100 1018.3
20260905054833 17 227 6.4 9.7 0.00 0.00 0.00 100 1018.2
20260905053632 17 232 6.4 12.9 0.00 0.00 0.00 100 1017.9
20260905052431 17 291 8.0 24.1 0.00 0.00 0.00 100 1018.3
20260905051231 17 284 6.4 25.7 0.00 0.00 0.00 100 1018.1
20260905050030 18 285 11.3 22.5 0.00 0.00 0.00 100 1017.8
20260905044829 18 298 8.0 16.1 0.00 0.00 0.00 100 1017.7
20260905043629 18 244 3.2 12.9 0.00 0.00 0.00 100 1017.5
20260905042428 18 191 3.2 14.5 0.00 0.00 0.00 100 1017.2
20260905041227 18 250 4.8 11.3 0.00 0.00 0.00 100 1016.9
20260905040027 18 206 8.0 9.7 0.00 0.00 0.00 100 1016.8
20260905034826 18 209 3.2 11.3 0.00 0.00 0.00 100 1016.7
20260905033625 18 268 6.4 16.1 0.00 0.00 0.00 100 1016.8
20260905032425 18 206 6.4 17.7 0.00 0.00 0.00 100 1016.4
20260905031224 18 206 11.3 16.1 0.00 0.00 0.00 100 1016.3
20260905030023 18 192 8.0 11.3 0.00 0.00 0.00 100 1015.8
20260905025626 18 189 6.4 16.1 0.00 0.00 0.00 100 1015.8
20260905024822 19 175 8.0 8.0 0.00 0.00 0.00 100 1015.9
20260905023622 19 22 1.6 3.2 0.00 0.00 0.00 100 1016.0
20260905022421 19 150 0.0 3.2 0.00 0.00 0.00 100 1016.1
20260905021220 19 206 1.6 6.4 0.00 0.00 0.00 100 1016.2
20260905020020 19 165 0.0 4.8 0.00 0.00 0.00 100 1015.9
20260905014819 19 182 0.0 3.2 0.00 0.00 0.00 100 1016.2
20260905013618 19 146 1.6 4.8 0.00 0.00 0.00 100 1016.0
20260905012418 19 285 1.6 3.2 0.00 0.00 0.00 100 1016.3
20260905011217 19 288 1.6 3.2 0.00 0.00 0.00 100 1015.9
20260905010016 20 180 1.6 3.2 0.00 0.00 0.00 100 1015.7
20260905004816 20 122 0.0 1.6 0.00 0.00 0.00 100 1015.5
20260905003615 20 46 0.0 0.0 0.00 0.00 0.00 100 1015.5
20260905002414 20 53 0.0 3.2 0.00 0.00 0.00 100 1015.4
20260905001214 20 57 3.2 6.4 0.00 0.00 0.00 100 1015.2
20260905000013 19 78 3.2 6.4 0.00 0.00 0.00 100 1015.1
20260904234812 19 354 4.8 6.4 0.00 0.00 0.00 100 1015.0
20260904233612 19 354 4.8 12.9 0.00 0.00 0.00 100 1015.0
20260904232411 19 357 6.4 12.9 0.00 0.00 0.00 100 1014.8
20260904231210 20 354 6.4 8.0 0.00 0.00 0.00 100 1014.7
20260904230009 20 345 8.0 17.7 0.00 0.00 0.00 100 1014.7
20260904224809 20 322 11.3 14.5 0.00 0.00 0.00 100 1014.6
20260904223608 20 344 6.4 17.7 0.00 0.00 0.00 100 1014.5
20260904222407 20 334 11.3 25.7 0.00 0.00 0.00 100 1014.2
20260904221207 21 326 19.3 32.2 0.00 0.00 0.00 100 1013.9
20260904220006 21 319 12.9 35.4 0.00 0.00 0.00 100 1013.6
20260904214805 22 320 17.7 35.4 0.00 0.00 0.00 100 1013.2
20260904213605 24 310 9.7 16.1 0.00 0.00 0.00 100 1012.7
20260904212404 24 230 9.7 22.5 0.00 0.00 0.00 100 1012.1
20260904211203 24 194 20.9 24.1 0.00 0.00 0.00 100 1012.0
20260904210003 24 154 1.6 16.1 0.00 0.00 0.00 100 1012.0
20260904204802 24 196 8.0 20.9 0.00 0.00 0.00 100 1012.0
20260904203601 24 151 12.9 22.5 0.00 0.00 0.00 100 1011.8
20260904202400 24 201 14.5 17.7 0.00 0.00 0.00 100 1011.8
20260904201200 24 206 11.3 29.0 0.00 0.00 0.00 100 1011.8
20260904195959 25 202 17.7 25.7 0.00 0.00 0.00 100 1011.7
20260904194758 24 189 8.0 14.5 0.00 0.00 0.00 100 1012.0
20260904193558 25 264 3.2 6.4 0.00 0.00 0.00 100 1012.3
20260904192357 25 223 4.8 11.3 0.00 0.00 0.00 100 1012.5
20260904191156 25 244 3.2 16.1 0.00 0.00 0.00 100 1012.7
20260904185956 25 226 9.7 11.3 0.00 0.00 0.00 100 1012.8
20260904184755 25 203 8.0 9.7 0.00 0.00 0.00 100 1012.9
20260904183554 26 241 8.0 11.3 0.00 0.00 0.00 100 1012.9
20260904182354 26 198 1.6 9.7 0.00 0.00 0.00 100 1012.9
20260904181153 26 198 1.6 11.3 0.00 0.00 0.00 100 1012.7
20260904175952 25 217 4.8 8.0 0.00 0.00 0.00 100 1012.5
20260904174752 25 210 8.0 11.3 0.00 0.00 0.00 100 1012.2
20260904173551 26 195 3.2 8.0 0.00 0.00 0.00 100 1012.0
20260904172350 26 220 3.2 9.7 0.00 0.00 0.00 100 1012.1
20260904171150 26 192 6.4 16.1 0.00 0.00 0.00 100 1012.1
20260904165949 26 194 8.0 20.9 0.00 0.00 0.00 100 1012.0